Location: El Pui
(42.5473°N, 1.5144°E)
Time: 04:33:44
(UTC+00:00)

Daily predictions for brighter satellites

Satellite Brightness Start Highest point End
(mag) Time Altitude Azimuth Time Altitude Azimuth Time Altitude Azimuth
COSMOS 2455 4.0 00:04:46 26° ESE 00:05:23 26° ESE 00:10:16 10° NE
MetOp-A 3.5 00:06:32 64° NW 00:06:32 64° NW 00:09:52 10° NNW
Nadezhda 1 Rocket 4.1 00:04:29 47° SW 00:06:09 65° W 00:12:19 10° N
Cosmos 2082 Rocket 2.5 00:03:13 10° NW 00:08:35 47° WSW 00:09:02 46° WSW
Cosmos 2278 Rocket 4.0 00:06:22 12° WSW 00:10:25 25° NW 00:15:01 10° N
NOSS 3-1 (A) 4.4 00:14:36 22° ESE 00:14:36 22° ESE 00:18:07 10° ENE
Cosmos 1110 Rocket 4.4 00:11:30 10° NNW 00:16:23 44° WSW 00:16:32 43° WSW
SL-8 R/B 3.8 00:15:45 43° W 00:17:12 70° NNW 00:21:57 10° ENE
CZ-4C R/B 4.4 00:14:11 10° NNE 00:16:54 32° ENE 00:16:54 32° ENE
Cosmos 1356 Rocket 4.4 00:14:24 10° N 00:18:08 36° ENE 00:18:25 36° E
Cosmos 1452 Rocket 3.5 00:15:12 10° NNW 00:20:25 65° WSW 00:20:55 61° SW
USA 308 4.2 00:23:07 25° ENE 00:23:07 25° ENE 00:25:12 10° ENE
NOSS 3-1 (C) 2.6 00:22:32 75° S 00:22:50 80° ESE 00:28:09 10° NE
Cosmos 1908 Rocket 4.4 00:21:08 10° N 00:25:21 41° ENE 00:26:03 38° ESE
CZ-3B R/B 3.8 00:28:33 39° SW 00:31:25 82° SE 00:56:46 10° NE
Cosmos 972 Rocket 4.0 00:28:40 10° NNW 00:34:15 66° WSW 00:34:56 59° SW
COSMOS 2406 3.2 00:30:32 10° NNW 00:36:09 63° WSW 00:37:01 55° SSW
Cosmos 2341 Rocket 3.9 00:30:15 10° N 00:36:31 87° W 00:38:22 49° S
SL-8 Rocket 3.9 00:34:04 10° N 00:40:14 79° W 00:41:58 50° S
SL-4 R/B 3.0 00:42:23 30° NE 00:42:23 30° NE 00:44:08 10° NE
Cosmos 2297 3.6 00:45:21 54° SSW 00:46:46 90° ESE 00:52:32 10° NNE
Cosmos 2369 Rocket 2.2 00:50:46 48° SW 00:52:16 72° WNW 00:57:53 10° NNE
Lacrosse 4 Rocket 2.8 00:50:10 10° NNW 00:54:03 34° NE 00:56:30 19° ESE
DELTA 2 DEB (DPAF) 3.8 00:50:38 10° NNE 00:53:47 65° NE 00:53:47 65° NE
CZ-2C R/B 3.4 00:55:17 33° WSW 00:55:38 33° W 01:00:20 10° NNW
USA 290 3.3 00:55:01 10° NNW 00:57:15 42° N 00:57:15 42° N
Cosmos 1959 Rocket 4.5 00:52:11 10° NNW 00:58:24 73° W 01:00:25 45° SSW
Cosmos 2228 Rocket 3.9 00:59:27 36° W 00:59:48 37° WNW 01:03:54 10° N
ADEOS Rocket 3.9 00:57:30 10° NNE 01:03:15 38° E 01:05:49 26° SE
USA 276 4.2 01:09:04 19° NW 01:09:53 22° N 01:12:16 10° NE
In-Cosmos 22 Rocket 4.2 01:09:23 43° SSE 01:11:08 69° E 01:16:40 10° NNE
Cosmos 1818 3.5 01:09:43 50° SW 01:11:14 88° NW 01:16:43 10° NNE
ARIANE 6 FM1 Upper Stage 3.9 01:16:12 27° W 01:17:32 34° NW 01:21:18 10° NNE
Cosmos 1300 Rocket 3.4 01:14:09 10° N 01:18:30 82° W 01:19:07 64° S
Cosmos 1315 Rocket 4.4 01:16:48 10° NW 01:19:10 22° WNW 01:19:10 22° WNW
Cosmos 1703 Rocket 4.2 01:25:41 37° W 01:26:16 39° WNW 01:30:23 10° N
Meteor 2-19 Rocket 4.5 01:24:50 35° S 01:27:33 75° E 01:33:36 10° NNE
Cosmos 2181 Rocket 4.4 01:25:44 34° SW 01:28:06 50° WNW 01:34:18 10° N
ATLAS 5 CENTAUR R/B 3.3 01:30:58 11° WNW 01:31:55 13° NW 01:33:21 10° N
Nadezhda 3 Rocket 3.9 01:29:57 37° SSW 01:32:36 83° W 01:38:52 10° N
Cosmos 1934 Rocket 4.4 01:27:15 10° N 01:33:29 60° E 01:38:14 18° SSE
Cosmos 1339 Rocket 4.4 01:32:02 34° S 01:34:52 81° E 01:40:57 10° N
Meteor 1-21 Rocket 4.4 01:32:42 34° S 01:35:22 76° E 01:41:18 10° NNE
Cosmos 407 Rocket 4.2 01:37:55 28° SSE 01:40:06 44° ESE 01:44:57 10° NNE
SJ 16-02 2.5 01:39:46 25° SE 01:41:19 33° E 01:45:07 10° NE
PSLV R/B 4.3 01:37:52 10° N 01:41:33 44° WNW 01:42:06 41° W
Cosmos 921 Rocket 3.0 01:41:10 47° S 01:42:15 73° ESE 01:46:27 10° NNE
USA 308 4.0 01:41:52 23° WNW 01:43:32 33° NNW 01:47:23 10° NE
Nimbus 7 Rocket 4.3 01:38:56 10° NNE 01:44:50 83° WNW 01:47:36 33° SSW
ACS3 Solar Sail 3.2 01:41:10 10° NNW 01:45:27 22° WNW 01:48:09 16° W
COSMOS 2455 3.3 01:47:52 28° WSW 01:50:56 53° NW 01:56:50 10° NNE
IDEFIX/ARIANE 42P 2.5 01:49:35 10° N 01:54:50 77° WNW 01:57:12 33° SSW
Cosmos 540 Rocket 4.2 01:50:42 10° N 01:55:39 50° ENE 02:00:35 10° SE
Iridium 82 4.5 02:00:15 44° WNW 02:00:15 44° WNW 02:02:38 10° N
SL-19 R/B 4.2 01:59:03 30° SE 02:00:30 62° ENE 02:03:44 10° N
ADEOS II 4.2 01:58:31 10° NE 02:02:22 21° E 02:06:12 10° SE
Meteor 1-11 4.2 02:00:23 27° S 02:03:33 81° E 02:09:12 10° NNE
NOSS 3-1 (A) 3.7 02:01:56 24° WSW 02:04:26 44° NW 02:09:44 10° NNE
Resurs 1-4 Rocket 3.2 02:07:52 10° NNE 02:12:46 38° E 02:17:14 12° SSE
Cosmos 1140 Rocket 4.2 02:11:29 25° WSW 02:13:53 41° WNW 02:18:44 10° N
Cosmos 1656 3.7 02:11:00 26° S 02:14:09 71° ESE 02:19:39 10° NNE
Cosmos 1346 Rocket 3.1 02:14:57 34° WSW 02:15:51 42° WNW 02:19:20 10° N
H-2A R/B 3.3 02:13:28 10° NNE 02:18:16 35° E 02:22:56 10° SSE
SL-4 R/B 3.8 02:16:11 10° WNW 02:18:36 20° NNW 02:21:00 10° NE
Cosmos 1605 Rocket 4.1 02:14:53 10° N 02:21:12 79° E 02:27:23 10° S
COSMOS 2441 4.3 02:17:40 10° NNE 02:22:35 90° ESE 02:25:38 23° SSW
Cosmos 371 Rocket 3.4 02:23:01 27° SW 02:25:33 61° WNW 02:30:22 10° NNE
Cosmos 1763 Rocket 3.3 02:22:25 10° NNW 02:27:28 75° WSW 02:32:29 10° SSE
Cosmos 304 Rocket 4.2 02:25:25 25° SW 02:27:52 50° WNW 02:32:31 10° N
Cosmos 1809 Rocket 4.4 02:23:30 20° S 02:27:57 83° W 02:34:11 10° N
Lacrosse 4 Rocket 2.6 02:28:17 10° WNW 02:31:35 23° WSW 02:31:50 22° WSW
Cosmos 2297 Rocket 3.2 02:30:01 10° NNW 02:35:32 50° ENE 02:40:59 10° SE
Cosmos 2369 Rocket 4.4 02:34:45 10° WNW 02:37:19 13° NW 02:39:54 10° NNW
Cosmos 1535 Rocket 4.5 02:31:08 10° N 02:37:25 75° W 02:43:31 10° S
Cosmos 1025 Rocket 3.0 02:34:41 21° SSW 02:37:31 81° W 02:41:53 10° N
OPS 8737 4.2 02:35:18 10° NNW 02:38:25 79° ENE 02:41:35 10° SE
MOZ.5/SAFIR/RUBIN 5/SL-8 3.7 02:35:42 12° S 02:39:56 74° WSW 02:44:34 10° NNW
FENGYUN 3A 4.4 02:38:12 10° N 02:43:09 39° WNW 02:46:39 18° SW
Lacrosse 5 rocket 4.2 02:43:49 10° N 02:45:25 13° NNE 02:47:00 10° NE
CZ-2D R/B 2.4 02:40:08 10° NNE 02:45:35 69° ESE 02:50:45 11° S
ADEOS Rocket 4.0 02:43:07 10° N 02:48:38 33° WNW 02:52:44 15° WSW
Cosmos 1980 Rocket 4.4 02:45:04 10° SE 02:48:57 19° E 02:52:51 10° NE
DMSP B5D2-2 4.1 02:45:42 10° S 02:50:54 66° WSW 02:56:10 10° NNW
ATLAS 3B R/B 3.9 02:45:44 10° S 02:52:43 43° ESE 02:59:58 10° NE
NOSS 2-2 (C) 3.6 02:51:00 10° NW 02:54:56 72° SW 03:00:27 10° SSE
ALOS 2.2 02:50:24 10° NNE 02:54:58 86° E 02:59:09 12° SSW
SL-24 DEB 4.4 02:54:34 15° SSW 02:58:03 49° W 03:02:21 10° NNW
Cosmos 468 Rocket 3.9 02:53:19 10° NNW 02:58:27 82° WSW 03:03:32 10° SSE
Cosmos 2360 4.4 02:54:41 17° SW 02:59:07 61° WNW 03:04:47 10° NNE
ARGOS 4.4 02:54:52 10° NNE 02:59:54 39° E 03:04:54 10° SSE
Cosmos 1455 Rocket 3.5 03:01:47 10° N 03:06:05 63° E 03:10:22 10° SSE
Cosmos 1153 Rocket 4.5 03:01:07 10° N 03:07:20 81° W 03:13:27 10° S
Cosmos 405 Rocket 3.8 03:06:51 15° WSW 03:08:12 19° WNW 03:10:26 10° NNW
Cosmos 2292 Rocket 2.6 03:06:53 14° SSW 03:09:16 69° W 03:12:29 10° N
Cosmos 2084 Rocket 3.3 03:07:47 14° SSW 03:11:08 75° SE 03:15:11 10° NE
Cosmos 374 Rocket 4.3 03:09:55 14° SW 03:13:16 69° NW 03:17:01 10° NNE
Okean 2 Rocket 3.4 03:09:09 10° NNW 03:13:20 47° W 03:17:30 10° SSW
Envisat 3.5 03:09:01 10° N 03:13:50 45° WNW 03:18:23 11° SW
SeaSat 1 2.4 03:10:17 10° SSE 03:15:09 76° WSW 03:20:05 10° NNW
Cosmos 546 4.5 03:11:26 10° WNW 03:15:11 69° SW 03:18:56 10° SE
SJ 16-02 2.8 03:16:15 11° WSW 03:19:25 22° WNW 03:22:46 10° N
Cosmos 1727 Rocket 4.0 03:13:26 10° SSW 03:19:39 73° W 03:25:52 10° N
CENTAUR R/B 3.6 03:11:44 10° NW 03:20:13 78° NE 03:29:47 10° SE
USA 229 DEB 3.5 03:18:15 10° SSW 03:24:07 83° ESE 03:30:43 10° NE
USA 229 3.5 03:18:18 10° SSW 03:24:09 82° ESE 03:30:45 10° NE
BREEZE-M DEB (TANK) 4.3 03:14:57 10° W 03:24:20 40° N 03:27:31 10° ENE
Gbstr 26 Del rocket 4.5 03:19:27 11° SW 03:26:09 72° SE 03:33:55 10° ENE
Cosmos 292 Rocket 3.9 03:22:50 10° SSW 03:27:35 77° ESE 03:32:20 10° NNE
Cosmos 968 Rocket 3.8 03:22:37 10° S 03:27:47 67° ESE 03:33:00 10° NNE
Cosmos 1862 3.0 03:25:58 10° S 03:29:29 87° ESE 03:33:03 10° N
Cosmos 2221 Rocket 4.5 03:27:55 10° SW 03:32:01 34° WNW 03:36:10 10° N
SL-16 R/B 3.3 03:26:04 10° SSE 03:32:05 58° ENE 03:38:09 10° N
Cosmos 1459 Rocket 4.1 03:27:09 10° N 03:33:21 89° W 03:39:38 10° S
Cosmos 841 Rocket 3.5 03:28:37 10° NNW 03:33:50 82° WSW 03:38:59 10° SSE
Cosmos 2173 Rocket 4.0 03:28:05 10° N 03:34:25 82° W 03:40:38 10° S
METEOR-M 4.2 03:29:32 10° N 03:34:54 78° WNW 03:40:13 10° SSW
SL-08 RB Rocket 4.5 03:35:32 10° NNE 03:40:00 53° E 03:44:25 10° S
NOSS 2-2 (E) 3.6 03:37:09 10° NW 03:41:04 86° SW 03:46:32 10° SSE
ADEOS II 2.4 03:37:07 10° N 03:42:10 51° WNW 03:47:11 10° SW
SL-8 R/B 4.5 03:38:09 10° WNW 03:42:51 56° NNE 03:47:32 10° E
Cosmos 2100 Rocket 4.0 03:36:38 10° NNW 03:42:53 69° W 03:49:01 10° S
Cosmos 2016 Rocket 4.4 03:39:42 10° N 03:45:55 73° E 03:52:10 10° SSE
Cosmos 1697 Rocket 2.9 03:41:50 10° SW 03:47:24 63° WNW 03:53:00 10° NNE
